This is the latest recevied weather packets stored in our database for station/object K8GLX. If no packets are shown the sender has not sent any weather packets the latest 10 day(s).
| Time | Temp. | Humidity | Pressure | Rain* | Wind** | Luminosity | Snow |
|---|---|---|---|---|---|---|---|
| 1777765335 | 6.11° C | 60% | 1016.5 hPa | 0 mm | - | 20 W/m² | - |
| 1777765029 | 6.11° C | 60% | 1016.7 hPa | 0 mm | - | 22 W/m² | - |
| 1777764863 | 6.11° C | 61% | 1016.5 hPa | 0 mm | - | 25 W/m² | - |
| 1777764428 | 6.67° C | 62% | 1016.8 hPa | 0 mm | - | 29 W/m² | - |
| 1777764135 | 6.67° C | 62% | 1016.7 hPa | 0 mm | - | 28 W/m² | - |
| 1777763829 | 6.11° C | 62% | 1016.6 hPa | 0 mm | - | 33 W/m² | - |
| 1777763535 | 6.11° C | 62% | 1016.7 hPa | 0 mm | - | 44 W/m² | - |
| 1777763228 | 6.11° C | 61% | 1016.9 hPa | 0 mm | - | 54 W/m² | - |
| 1777762935 | 6.11° C | 59% | 1016.7 hPa | 0 mm | - | 62 W/m² | - |
| 1777762628 | 6.11° C | 58% | 1016.9 hPa | 0 mm | - | 68 W/m² | - |
| 1777762335 | 6.11° C | 60% | 1016.9 hPa | 0 mm | - | 70 W/m² | - |
| 1777762151 | 6.11° C | 62% | 1016.9 hPa | 0 mm | - | 73 W/m² | - |
| 1777761862 | 6.11° C | 61% | 1016.8 hPa | 0 mm | - | 73 W/m² | - |
| 1777761429 | 6.11° C | 61% | 1017 hPa | 0 mm | - | 76 W/m² | - |
| 1777761134 | 6.11° C | 62% | 1016.8 hPa | 0 mm | - | 83 W/m² | - |
| 1777760829 | 6.67° C | 62% | 1016.9 hPa | 0 mm | - | 91 W/m² | - |
| 1777760534 | 6.11° C | 62% | 1017 hPa | 0 mm | - | 97 W/m² | - |
| 1777760228 | 6.67° C | 62% | 1016.8 hPa | 0 mm | - | 108 W/m² | - |
| 1777759934 | 6.67° C | 61% | 1016.8 hPa | 0 mm | - | 117 W/m² | - |
| 1777759629 | 6.11° C | 63% | 1017 hPa | 0 mm | - | 119 W/m² | - |
| 1777759334 | 6.11° C | 62% | 1016.9 hPa | 0 mm | - | 112 W/m² | - |
| 1777758735 | 6.67° C | 62% | 1016.7 hPa | 0 mm | - | 103 W/m² | - |
| 1777758550 | 6.11° C | 61% | 1016.9 hPa | 0 mm | - | 112 W/m² | - |
| 1777758262 | 6.11° C | 61% | 1016.9 hPa | 0 mm | - | 119 W/m² | - |
| 1777757828 | 6.67° C | 60% | 1016.9 hPa | 0 mm | - | 134 W/m² | - |
* Rain latest hour (hover to see other rain measurements)
** Current wind speed in m/s (hover to see current wind gust speed)